,

(GMT )
Entrance

Weather History for CWEL - January, 2013

Change the Weather History Date:

Saturday, January 19, 2013

  Actual Average Record
Temperature  
Mean Temperature 38 °F -  
Max Temperature 40 °F - - ()
Min Temperature 37 °F - - ()
Degree Days  
Heating Degree Days 26    
Moisture  
Dew Point 35 °F    
Average Humidity 87    
Maximum Humidity 91    
Minimum Humidity 81    
Precipitation  
Precipitation 0.00 in - - ()
Sea Level Pressure  
Sea Level Pressure 30.36 in    
Wind  
Wind Speed 7 mph ()    
Max Wind Speed 15 mph    
Max Gust Speed -    
T = Trace of Precipitation, MM = Missing Value Source: Averaged Metar Reports

Daily Weather History Graph

Daily Weather History Graph

Search for Another Location

Airport or City:

Trip Planner

Search our weather history database for the weather conditions in past years. The results will help you decide how hot, cold, wet, or windy it might be!

Date:

Astronomy

Jan. 19, 2013 Rise Set
Actual Time 8:01 AM PST 4:51 PM PST
Civil Twilight 7:25 AM PST 5:27 PM PST
Nautical Twilight 6:46 AM PST 6:06 PM PST
Astronomical Twilight 6:08 AM PST 6:44 PM PST
Moon 11:26 AM PST (1/19) 1:33 AM PST (1/19)
Length of Visible Light 10h 01m
Length of Day
8h 50m
First Quarter, 58% of the Moon is Illuminated
Jan 19
First Quarter
Jan 26
Full
Feb 3
Last Quarter
Feb 9
New
Feb 17
First Quarter

Hourly Weather History & Observations

Time (PST) Temp. Windchill Dew Point Humidity Pressure Visibility Wind Dir Wind Speed Gust Speed Precip Events Conditions
12:00 AM 37.2 °F 31.9 °F 34.0 °F 88% 30.33 in - West 6.9 mph - N/A   Unknown
1:00 AM 37.9 °F 34.4 °F 34.5 °F 87% 30.34 in - West 4.6 mph - N/A   Unknown
2:00 AM 38.3 °F 34.8 °F 34.5 °F 86% 30.34 in - West 4.6 mph - N/A   Unknown
3:00 AM 37.9 °F 33.5 °F 34.3 °F 87% 30.35 in - West 5.8 mph - N/A   Unknown
4:00 AM 39 °F - 35 °F 81% 30.35 in - West 3.5 mph - -  
4:00 AM 38.7 °F 36.3 °F 35.2 °F 87% 30.35 in - West 3.5 mph - N/A   Unknown
5:00 AM 38.3 °F 33.9 °F 34.7 °F 87% 30.35 in - West 5.8 mph - N/A   Unknown
6:00 AM 37.4 °F 31.4 °F 34.0 °F 87% 30.35 in - West 8.1 mph - N/A   Unknown
7:00 AM 37.6 °F 32.3 °F 34.3 °F 88% 30.35 in - West 6.9 mph - N/A   Unknown
8:00 AM 37.4 °F 31.4 °F 34.5 °F 89% 30.36 in - West 8.1 mph - N/A   Unknown
9:00 AM 37.9 °F 32.7 °F 35.1 °F 89% 30.37 in - West 6.9 mph - N/A   Unknown
10:00 AM 38 °F - 35 °F 84% 30.38 in - West 8.1 mph - -  
10:00 AM 37.9 °F 32.1 °F 34.9 °F 89% 30.38 in - West 8.1 mph - N/A   Unknown
11:00 AM 38.5 °F 34.1 °F 34.9 °F 87% 30.38 in - West 5.8 mph - N/A   Unknown
12:00 PM 39.2 °F 35.0 °F 35.2 °F 86% 30.37 in - WNW 5.8 mph - N/A   Unknown
1:00 PM 39.4 °F 34.5 °F 35.1 °F 84% 30.36 in - NW 6.9 mph - N/A   Unknown
2:00 PM 39.9 °F 33.9 °F 35.2 °F 83% 30.35 in - NNW 9.2 mph - N/A   Unknown
3:00 PM 40.6 °F 34.3 °F 36.7 °F 86% 30.35 in - NW 10.4 mph - N/A   Unknown
4:00 PM 40 °F - 37 °F 85% 30.35 in - NNW 11.5 mph - -  
4:00 PM 40.3 °F 33.4 °F 37.0 °F 88% 30.35 in - NNW 11.5 mph - N/A   Unknown
5:00 PM 40.6 °F 33.0 °F 36.9 °F 86% 30.34 in - NW 13.8 mph - N/A   Unknown
6:00 PM 40.5 °F 32.5 °F 36.9 °F 87% 30.35 in - NW 15.0 mph - N/A   Unknown
8:00 PM 39.7 °F 32.7 °F 36.1 °F 87% 30.36 in - NW 11.5 mph - N/A   Unknown
9:00 PM 39.4 °F 32.3 °F 36.3 °F 89% 30.36 in - NW 11.5 mph - N/A   Unknown
10:00 PM 39 °F - 36 °F 85% 30.36 in - NW 9.2 mph - -  
10:00 PM 38.8 °F 32.6 °F 36.1 °F 90% 30.36 in - NW 9.2 mph - N/A   Unknown
11:00 PM 38.5 °F 31.1 °F 36.0 °F 91% 30.37 in - WNW 11.5 mph - N/A   Unknown